Theta_e
329 336 343 345 341 340 340 338 331 320 317 320 321 330 328 328 326 325 326 317 315 313 312 311 311 312 311 312 312 313 314 315 318 319 321 323 324 329
321 324 332 335 336 335 334 330 327 325 319 318 317 321 322 324 320 325 324 314 312 310 309 310 309 309 310 311 311 312 313 314 316 317 318 319 321 323
319 322 323 334 329 326 325 322 316 317 313 313 316 319 322 324 317 323 320 318 315 309 308 307 308 309 310 310 311 311 311 313 315 315 317 317 319 321
316 319 322 326 325 321 321 316 315 312 313 310 314 315 318 322 320 320 317 316 315 309 307 307 307 309 311 311 310 309 312 313 313 314 315 316 318 320
314 317 319 326 321 320 319 316 317 315 317 313 313 314 317 318 317 317 316 316 315 309 307 309 308 310 311 311 311 312 311 310 310 310 312 313 314 316
313 318 315 325 321 321 321 319 321 318 316 312 311 309 313 313 313 310 310 312 312 311 307 307 308 310 311 313 314 313 311 309 308 308 309 308 308 311
311 317 314 325 325 325 325 322 324 321 314 311 307 306 307 308 309 313 312 312 313 313 312 311 312 315 315 314 315 310 308 308 308 308 308 307 305 306
307 315 314 322 324 321 321 322 326 322 317 307 307 307 309 310 313 310 309 307 306 311 309 309 313 312 314 315 309 307 305 305 305 307 307 307 307 306
307 310 317 320 323 324 316 315 315 312 316 312 311 314 312 314 313 311 311 310 309 310 309 308 312 311 313 312 308 308 304 304 304 304 305 306 306 304
308 311 311 316 320 317 313 311 312 310 311 312 316 317 317 317 315 314 312 311 311 311 311 305 311 310 313 313 306 307 303 303 303 303 303 304 304 302
311 315 312 317 309 305 308 306 306 306 306 305 304 302 301 302 310 310 307 306 306 308 311 307 309 309 310 311 312 308 306 303 303 303 303 304 303 303
304 310 307 311 301 302 305 303 301 302 302 300 301 301 304 303 301 312 308 306 307 305 310 306 308 310 306 310 312 312 311 304 303 303 303 304 303 312
295 298 299 299 298 298 301 301 299 300 300 301 300 300 303 300 305 306 307 308 305 305 309 308 308 308 306 306 309 310 310 310 311 310 301 303 302 305
293 296 295 295 295 296 297 296 297 299 300 300 299 300 301 301 306 305 307 310 310 307 309 310 305 303 302 304 304 309 309 310 311 310 312 307 302 301
294 296 295 295 295 296 296 297 298 299 299 298 299 302 304 303 304 305 306 305 306 306 306 308 306 305 303 302 303 305 305 308 310 310 312 311 312 314
294 294 295 295 295 296 296 298 299 300 299 300 300 302 303 302 301 305 303 302 302 301 305 307 308 308 303 302 303 303 307 305 309 310 311 313 314 315
294 295 294 294 295 296 297 297 298 299 298 300 299 298 298 298 299 300 300 300 299 299 300 303 306 307 305 305 301 305 306 307 312 313 311 309 311 311
294 292 293 293 294 296 296 297 298 297 298 298 298 297 296 297 297 299 300 299 298 298 298 300 301 300 301 304 306 304 307 310 307 308 307 305 306 311
290 290 290 291 292 293 294 295 295 296 298 297 297 296 297 297 297 297 297 298 297 298 298 299 299 298 296 296 303 301 307 306 304 305 308 308 310 312
290 289 289 290 290 291 293 293 294 295 295 296 296 297 298 297 296 296 296 295 295 297 298 299 299 299 298 298 298 303 297 304 303 303 302 306 301 298
290 289 290 290 290 290 291 293 293 293 293 295 295 295 296 296 295 295 295 289 291 296 296 297 300 290 303 303 300 303 306 297 302 301 300 298 302 304
289 288 288 289 289 289 290 291 291 292 293 293 294 294 294 294 293 293 294 293 294 295 296 299 301 302 301 300 299 302 304 304 297 296 296 296 297 299
289 288 288 288 288 289 289 289 289 291 292 292 292 293 293 292 293 293 293 294 295 295 296 296 298 300 299 300 298 299 303 306 304 298 296 296 296 297
Wind_Speed
18 18 17 14 11 13 13 14 13 11 13 11 8 11 10 9 8 11 13 14 11 9 6 5 6 7 10 11 11 12 12 13 13 13 15 17 17 15
15 18 18 10 12 12 14 11 11 11 10 9 8 9 8 9 9 8 8 14 12 9 6 6 6 8 8 10 10 11 11 11 11 12 14 16 17 17
20 20 20 18 11 10 10 12 10 10 7 5 6 8 13 12 10 9 10 11 11 11 6 4 5 6 7 8 9 8 8 9 10 13 14 15 17 17
23 21 19 9 14 13 12 14 13 10 8 9 9 9 12 10 11 10 8 8 6 13 8 7 6 6 5 6 6 6 7 7 9 11 12 14 17 19
25 22 19 18 16 12 13 12 12 9 9 8 8 8 11 11 10 9 9 7 7 12 11 11 7 5 1 2 3 3 4 6 7 8 9 11 13 16
25 23 20 21 19 18 16 16 13 14 13 10 8 10 8 9 9 9 8 9 7 5 4 4 4 8 6 3 3 2 2 5 6 7 8 9 11 13
25 25 21 26 27 23 14 16 18 16 15 13 11 10 11 11 10 8 9 7 7 5 4 4 5 7 9 10 6 5 5 6 7 8 9 8 8 9
22 24 20 28 26 27 26 25 22 19 18 12 10 13 12 12 11 10 8 7 7 6 4 5 5 6 5 5 9 3 3 5 6 8 8 9 9 8
22 20 18 16 21 19 20 14 23 17 17 17 15 14 15 12 12 12 9 7 4 8 4 5 5 5 5 5 12 8 3 4 6 8 8 9 9 8
20 20 19 19 15 15 13 11 16 14 12 10 13 13 12 13 12 8 10 6 2 4 4 6 5 5 5 5 14 11 5 6 7 7 8 9 8 8
16 21 18 17 14 17 15 14 11 10 14 20 20 19 16 10 8 8 7 7 5 5 7 6 5 5 5 6 6 13 13 11 8 7 8 9 9 8
9 2 4 9 15 14 14 16 12 7 14 16 14 13 10 10 6 1 5 4 3 4 4 5 5 3 5 5 4 5 7 15 11 11 11 12 10 8
10 9 11 27 25 18 16 12 16 10 10 10 11 9 7 7 5 4 3 2 4 5 6 3 3 3 5 6 6 4 5 4 7 8 16 13 11 10
14 11 17 32 28 27 20 26 24 10 5 4 6 5 7 6 8 6 4 1 2 6 3 3 3 4 5 8 8 4 5 5 6 7 7 6 13 14
16 20 26 24 28 22 24 22 17 8 4 3 1 3 4 7 6 4 4 3 4 4 6 8 6 6 5 8 9 7 6 6 5 4 3 4 6 6
17 15 20 22 23 19 14 11 8 5 3 1 5 3 4 5 4 3 3 3 3 3 7 9 8 7 5 8 8 7 8 5 4 5 7 7 8 7
12 10 9 9 7 7 7 7 6 4 4 3 3 4 4 4 4 3 2 2 3 2 3 7 7 6 7 8 8 7 7 6 4 6 6 8 7 7
10 9 9 9 7 7 7 7 6 5 3 4 4 3 2 3 4 3 3 2 3 3 3 3 3 5 5 8 11 7 6 4 6 7 7 6 8 7
10 8 8 8 7 7 6 5 5 4 4 3 3 1 1 3 3 2 2 1 3 3 4 3 4 5 5 6 2 5 7 5 4 7 6 8 9 5
9 9 8 7 7 6 5 4 4 3 3 3 2 1 1 1 1 1 1 2 3 4 3 4 4 4 4 4 5 3 5 4 5 5 5 5 1 1
9 8 8 7 7 6 7 6 5 4 4 2 2 1 2 3 2 3 3 2 2 6 3 3 1 2 7 6 7 3 4 6 2 3 3 5 3 2
8 8 7 7 6 6 5 3 4 4 2 2 2 2 2 2 3 3 4 3 3 4 5 5 4 5 6 7 7 8 6 5 8 10 9 4 3 3
9 9 8 7 7 7 7 6 6 4 5 4 3 2 3 3 2 3 5 4 2 6 5 5 5 5 6 7 6 7 12 2 4 1 3 11 8 7
Wind_Direction
264 277 266 236 237 236 235 230 223 215 209 202 202 199 194 187 165 172 156 158 177 181 193 243 265 277 283 282 288 293 295 301 302 313 318 317 311 303
265 266 270 217 233 216 226 223 220 227 229 173 201 167 175 185 157 184 159 162 178 184 202 230 253 275 284 289 290 284 296 303 303 309 312 314 312 306
266 263 262 239 208 206 211 209 203 200 187 179 167 164 177 180 153 186 151 207 174 167 174 250 266 272 278 280 283 290 295 294 305 309 310 316 315 306
269 261 254 225 212 203 202 203 209 200 189 155 163 158 185 185 166 179 196 208 234 157 171 215 220 264 289 306 297 288 295 321 322 320 326 325 327 318
266 258 257 227 213 207 204 199 200 185 184 162 156 160 180 181 163 196 196 202 224 143 196 206 197 222 273 6 311 299 318 322 311 317 322 331 337 342
264 259 255 231 214 209 200 193 192 187 178 152 152 163 165 171 176 180 195 212 203 196 182 257 216 196 202 198 224 235 292 303 317 320 334 338 338 344
262 262 248 238 219 212 195 188 191 192 183 174 154 164 172 172 195 192 208 175 179 220 213 223 224 221 178 197 217 100 17 353 343 334 328 334 338 343
255 257 245 248 222 212 206 197 187 182 187 178 165 176 180 169 192 174 188 185 186 167 209 240 211 238 238 236 110 104 44 1 345 335 322 319 323 335
242 250 256 251 210 210 204 209 172 182 194 173 173 185 171 171 170 181 185 184 202 136 211 256 223 244 238 160 157 168 213 286 303 316 312 306 306 311
229 235 239 255 193 187 176 181 173 168 163 166 155 166 171 164 170 179 161 161 156 218 211 254 218 235 248 262 168 164 186 268 265 285 277 282 289 298
233 230 226 239 172 155 159 159 159 134 91 85 86 88 85 75 137 155 164 183 194 200 165 249 263 250 248 256 151 183 213 233 237 248 261 261 259 264
353 116 136 181 131 136 144 141 126 90 114 108 100 92 107 92 54 251 157 211 214 226 149 231 236 276 263 154 208 233 235 215 211 221 227 228 228 260
3 39 75 90 88 91 97 100 95 84 70 96 101 116 128 132 158 211 197 150 222 235 106 226 265 274 268 290 267 259 301 280 269 234 211 213 203 236
16 36 60 77 76 79 83 75 75 88 71 86 113 147 143 170 129 167 122 58 351 318 106 263 273 272 291 295 290 314 289 284 274 279 279 163 197 205
19 37 50 59 75 69 67 78 83 71 39 106 142 118 115 81 96 133 96 161 234 245 248 260 252 259 266 275 291 305 300 275 258 281 325 271 282 252
22 30 43 48 59 68 66 66 74 97 162 153 105 105 129 126 105 120 198 181 236 225 208 230 231 243 263 265 277 284 276 279 254 263 324 287 296 278
16 26 37 54 46 70 91 102 115 140 82 61 111 119 87 107 130 151 183 194 239 193 222 200 222 247 254 277 286 282 302 290 330 340 314 296 299 274
19 21 28 39 34 41 62 76 76 71 66 92 90 89 136 161 137 177 196 233 255 247 243 263 281 274 268 245 233 251 254 321 355 336 320 283 280 276
30 28 20 16 22 31 33 41 59 54 50 69 105 122 185 94 208 188 192 246 225 236 266 276 276 255 265 269 78 269 312 17 336 313 315 302 284 310
13 15 16 18 6 358 7 21 36 37 35 46 66 16 356 76 266 289 261 264 287 271 257 280 264 274 269 289 314 334 225 328 308 298 311 316 289 276
9 2 357 357 0 357 355 356 5 23 351 352 359 349 336 324 313 310 310 297 305 266 269 262 265 241 280 270 267 291 288 181 230 302 329 293 288 248
359 354 348 347 340 332 327 319 354 342 327 295 278 286 319 318 310 316 284 302 283 313 308 295 281 263 270 268 279 299 279 138 128 101 51 346 297 301
356 350 344 342 335 339 346 342 336 322 301 323 333 325 346 307 276 252 273 304 317 304 275 305 279 276 267 279 281 285 292 355 144 141 23 10 14 49